Weather History for Hamilton Airport, ON

Change the Weather History Date:

Wednesday, September 12, 2012

  Actual Average Record
Temperature  
Mean Temperature 68 °F -  
Max Temperature 79 °F 64 °F 86 °F (2005)
Min Temperature 57 °F 47 °F 46 °F (2002)
Cooling Degree Days 3    
Growing Degree Days 18 (Base 50)    
Moisture  
Dew Point 57 °F    
Average Humidity 72    
Maximum Humidity 94    
Minimum Humidity 44    
Precipitation  
Precipitation 0.00 in 0.10 in - ()
Sea Level Pressure  
Sea Level Pressure 30.24 in    
Wind  
Wind Speed 9 mph ()    
Max Wind Speed 17 mph    
Max Gust Speed 24 mph    
Visibility 15.0 miles    
Events      
Averages and records for this station are not official NWS values.
T = Trace of Precipitation, MM = Missing Value Source: Averaged Metar Reports

Daily Weather History Graph

Daily Weather History Graph

Search for Another Location

Airport:

Trip Planner

Search our weather history database for the weather conditions in past years. The results will help you decide how hot, cold, wet, or windy it might be!

Date:

Astronomy

Sep. 12, 2012 Rise Set
Actual Time 6:56 AM EDT 7:34 PM EDT
Civil Twilight 6:27 AM EDT 8:02 PM EDT
Nautical Twilight 5:53 AM EDT 8:36 PM EDT
Astronomical Twilight 5:18 AM EDT 9:11 PM EDT
Moon 3:06 AM EDT (9/12) 5:24 PM EDT (9/12)
Length of Visible Light 13h 35m
Length of Day
12h 37m
Waning Crescent, 14% of the Moon is Illuminated
Sep 12
Waning Crescent
Sep 15
New
Sep 22
First Quarter
Sep 29
Full
Oct 8
Last Quarter

Hourly Weather History & Observations

Time (EDT) Temp. Dew Point Humidity Pressure Visibility Wind Dir Wind Speed Gust Speed Precip Events Conditions
1:00 AM 59.0 °F 55.4 °F 88% 30.21 in 15.0 mi SSW 8.1 mph - N/A   Partly Cloudy
2:00 AM 58 °F 55 °F 85% 30.22 in - SSW 6.9 mph - -   Clear
2:00 AM 57.2 °F 55.4 °F 94% 30.22 in 15.0 mi SSW 6.9 mph - N/A   Partly Cloudy
3:00 AM 57.2 °F 55.4 °F 94% 30.22 in 15.0 mi SW 8.1 mph - N/A   Partly Cloudy
4:00 AM 59.0 °F 57.2 °F 94% 30.22 in 15.0 mi SSW 9.2 mph - N/A   Partly Cloudy
5:00 AM 57.2 °F 55.4 °F 94% 30.22 in 15.0 mi SW 8.1 mph - N/A   Partly Cloudy
6:00 AM 59.0 °F 57.2 °F 94% 30.23 in 15.0 mi SSW 8.1 mph - N/A   Partly Cloudy
7:00 AM 59.0 °F 57.2 °F 94% 30.26 in 15.0 mi SSW 8.1 mph - N/A   Scattered Clouds
8:00 AM 62 °F 60 °F 90% 30.27 in - SW 6.9 mph - -  
8:00 AM 62.6 °F 59.0 °F 88% 30.27 in 15.0 mi SW 6.9 mph - N/A   Partly Cloudy
9:00 AM 66.2 °F 62.6 °F 88% 30.27 in 15.0 mi SSW 10.4 mph - N/A   Partly Cloudy
10:00 AM 69.8 °F 60.8 °F 73% 30.27 in 15.0 mi SSW 15.0 mph - N/A   Partly Cloudy
11:00 AM 73.4 °F 60.8 °F 65% 30.27 in 15.0 mi SSW 15.0 mph - N/A   Partly Cloudy
12:00 PM 75.2 °F 57.2 °F 53% 30.26 in 15.0 mi WSW 15.0 mph - N/A   Scattered Clouds
1:00 PM 77.0 °F 57.2 °F 50% 30.24 in 15.0 mi SW 15.0 mph 21.9 mph N/A   Scattered Clouds
2:00 PM 78 °F 62 °F 48% 30.24 in - SSW 12.7 mph - -   Scattered Clouds
2:00 PM 78.8 °F 62.6 °F 57% 30.23 in 15.0 mi SSW 11.5 mph 18.4 mph N/A   Partly Cloudy
3:00 PM 78.8 °F 60.8 °F 54% 30.22 in 15.0 mi SSW 16.1 mph 23.0 mph N/A   Scattered Clouds
4:00 PM 77.0 °F 57.2 °F 50% 30.20 in 15.0 mi SSW 16.1 mph 24.2 mph N/A   Scattered Clouds
5:00 PM 77.0 °F 55.4 °F 47% 30.21 in 15.0 mi SSW 17.3 mph 23.0 mph N/A   Scattered Clouds
6:00 PM 75.2 °F 51.8 °F 44% 30.21 in 15.0 mi SSW 15.0 mph - N/A   Partly Cloudy
7:00 PM 71.6 °F 53.6 °F 53% 30.22 in 15.0 mi SSW 10.4 mph - N/A   Scattered Clouds
8:00 PM 65 °F 54 °F 60% 30.22 in - SSW 8.1 mph - -   Scattered Clouds
8:00 PM 64.4 °F 53.6 °F 68% 30.22 in 15.0 mi SSW 8.1 mph - N/A   Partly Cloudy
9:00 PM 62.6 °F 55.4 °F 77% 30.24 in 15.0 mi SSW 8.1 mph - N/A   Partly Cloudy
10:00 PM 62.6 °F 53.6 °F 72% 30.25 in 15.0 mi SSW 6.9 mph - N/A   Partly Cloudy
11:00 PM 60.8 °F 53.6 °F 77% 30.25 in 15.0 mi SSW 4.6 mph - N/A   Partly Cloudy